Wind_Speed
43 45 41 40 37 37 37 43 46 44 47 47 49 46 48 47 43 42 45 50 51 51 52 54 55 56 59 60 53 54 57 56 55 53 49 44 44 45 47 48 52 52 55 58 62 62 62 56 56
44 45 43 47 46 47 52 48 48 50 44 50 51 48 52 55 51 51 52 52 52 52 53 56 59 61 62 56 52 56 57 58 54 45 42 41 43 43 47 52 58 60 63 64 64 66 64 59 57
46 43 40 42 43 48 51 49 48 48 47 48 52 51 55 57 56 56 55 54 55 57 58 58 61 62 55 54 55 58 58 61 53 44 45 48 51 51 55 64 63 63 65 66 67 67 62 58 61
49 51 49 51 51 54 56 60 52 51 51 51 52 57 60 63 61 60 60 59 58 59 62 63 62 58 54 57 57 60 62 56 50 46 47 52 58 64 69 67 65 63 63 63 63 59 58 59 61
53 52 53 54 56 56 56 55 55 55 53 52 55 60 61 63 64 60 60 62 62 61 65 68 64 58 59 58 60 65 59 54 48 52 57 60 65 70 71 67 62 61 60 56 52 52 53 57 60
57 55 55 54 56 58 59 59 58 53 54 54 58 61 64 65 65 63 61 61 64 63 68 71 63 60 56 59 65 66 60 55 57 60 64 66 66 64 60 58 58 56 56 52 51 51 51 53 59
61 58 56 58 58 59 59 57 56 59 60 58 61 63 60 64 66 66 64 64 65 69 70 66 61 60 57 65 66 62 59 60 64 66 63 59 56 54 52 53 54 52 53 53 52 52 51 51 58
60 59 60 55 62 57 57 59 63 64 64 62 62 63 60 62 68 67 65 67 69 74 68 64 63 63 63 66 64 58 61 68 66 58 56 54 52 52 52 50 48 50 50 52 52 53 55 54 57
66 63 63 65 64 63 62 60 61 60 63 64 61 60 60 61 65 68 67 67 73 70 67 65 64 67 68 65 58 61 69 61 54 53 53 52 51 51 53 50 45 45 48 52 54 53 56 56 58
66 64 64 72 71 65 63 64 64 61 62 65 60 62 63 63 64 66 66 72 69 66 66 66 67 68 65 62 60 67 61 56 54 52 52 49 47 47 47 48 48 48 49 52 54 55 53 56 58
73 61 69 68 67 64 67 69 67 65 64 64 58 63 64 64 64 65 69 71 67 67 67 67 68 64 62 61 64 60 54 52 52 52 49 46 46 45 46 44 45 47 49 50 52 54 56 56 58
79 68 73 71 73 69 70 68 69 63 65 61 58 62 62 65 65 66 68 67 65 66 66 67 65 62 61 63 61 53 53 55 54 51 47 44 41 40 41 44 45 47 48 49 52 54 56 58 60
80 76 75 73 77 76 72 70 68 67 69 63 62 62 64 65 66 68 70 65 64 65 66 66 61 61 61 62 55 53 56 58 54 51 45 41 40 40 41 40 41 41 42 44 47 49 51 54 57
83 79 76 78 76 70 70 74 66 69 71 66 64 63 66 65 69 67 68 65 64 64 68 62 60 59 62 57 52 57 60 56 52 45 43 41 38 38 38 39 40 41 42 42 43 43 45 48 51
80 79 82 82 78 75 76 69 68 72 71 65 63 65 68 66 64 66 64 65 62 65 63 61 58 61 58 52 56 60 56 53 48 43 40 40 40 40 37 35 34 35 36 36 36 37 38 41 46
91 82 73 69 75 77 78 59 66 72 70 66 66 68 63 62 62 63 61 61 62 66 59 58 58 60 54 52 62 56 50 48 40 39 40 39 38 34 30 28 27 28 28 31 33 35 38 41 46
75 71 70 67 65 75 76 72 63 70 66 65 65 65 60 60 62 61 59 58 61 60 58 55 60 57 55 55 59 51 45 40 39 40 37 33 29 26 23 22 24 26 30 32 35 37 39 39 40
77 78 76 73 75 81 74 65 69 71 69 65 64 64 60 57 60 58 56 57 60 56 53 54 58 54 55 58 54 47 42 39 39 35 30 25 23 20 22 27 30 33 37 35 34 33 34 34 32
85 84 81 76 77 79 78 70 65 66 68 66 62 60 58 54 56 53 55 57 54 50 50 56 55 54 55 56 50 44 41 39 35 30 24 21 24 26 30 36 37 34 30 28 27 26 26 26 25
79 76 73 74 73 78 75 72 65 64 62 63 58 58 55 53 53 52 53 53 48 45 52 55 52 53 55 51 44 41 39 37 31 23 21 25 26 30 35 38 32 28 25 20 20 20 19 21 23
67 64 68 72 75 73 70 66 59 60 58 60 57 57 53 52 50 50 51 43 44 45 51 51 52 54 52 46 43 38 37 29 24 20 22 24 28 32 37 32 28 24 17 14 12 14 15 16 17
61 71 69 64 61 59 61 51 54 59 55 57 57 54 51 50 48 47 37 37 40 45 48 50 53 51 47 41 36 35 27 23 18 22 27 29 33 36 32 28 23 14 8 7 7 8 10 13 15
65 70 65 59 56 52 50 35 51 55 58 58 52 49 49 48 42 34 34 37 40 43 47 48 49 50 43 37 32 28 21 19 19 25 28 33 35 30 26 21 10 4 2 3 4 7 9 13 15
65 58 53 50 50 41 38 37 52 59 55 49 48 49 46 42 30 31 34 37 40 42 44 45 45 43 35 32 29 23 20 15 21 27 34 28 26 24 19 11 5 3 1 5 6 6 10 12 13
46 47 44 42 39 29 38 34 52 52 42 41 43 43 40 28 26 31 31 37 37 41 43 44 41 36 31 29 25 19 12 16 23 30 26 26 25 19 10 7 7 5 7 10 10 9 10 13 15
49 47 39 35 27 36 33 36 47 37 34 38 37 30 22 22 28 29 32 33 35 39 42 41 37 31 30 26 19 11 12 20 27 22 24 25 17 10 8 10 9 12 12 13 13 12 13 14 19
51 37 43 28 21 32 30 35 42 30 32 28 20 18 21 24 27 27 28 30 37 38 39 36 30 28 27 20 10 7 15 26 25 18 18 18 12 9 11 13 14 14 14 13 16 18 17 19 25
47 42 27 22 27 32 34 41 43 27 20 17 16 20 21 23 26 26 24 32 33 35 37 34 27 24 22 14 3 8 16 29 25 17 19 18 11 12 12 13 13 16 15 14 20 20 23 23 27
43 33 29 26 33 37 38 39 34 21 16 16 19 21 24 22 24 20 26 27 31 36 33 26 24 20 16 8 4 8 15 29 30 17 19 18 15 14 14 13 13 13 16 17 21 24 24 26 28
51 41 33 29 38 39 35 36 23 16 19 20 22 22 23 20 18 19 25 27 28 29 24 23 19 17 13 4 6 5 16 20 25 22 17 17 17 18 16 13 13 15 17 19 21 23 26 30 30
Wind_Direction
259 263 265 256 256 267 271 281 292 295 297 296 304 308 309 307 307 304 305 306 307 308 305 301 305 305 305 307 306 305 305 303 303 298 287 279 276 267 265 269 267 272 269 274 274 273 274 265 247
256 262 267 260 255 260 271 286 289 290 294 293 296 305 310 310 307 307 305 306 308 311 309 307 305 305 305 307 305 306 305 307 303 292 284 276 275 277 276 279 278 273 271 269 268 270 268 260 243
257 259 265 265 264 264 270 276 282 287 291 293 293 300 306 309 306 304 307 310 312 313 312 307 305 305 308 304 306 308 306 305 297 284 285 282 284 284 283 287 283 273 272 266 266 267 262 253 244
253 253 262 266 268 271 273 280 282 289 291 293 295 302 301 306 309 307 307 310 313 314 313 309 309 308 306 307 309 307 305 299 287 286 286 292 291 292 289 284 279 272 274 265 263 259 255 248 245
257 259 265 271 270 274 276 278 278 285 291 293 296 299 298 301 305 304 305 310 312 314 311 309 313 309 307 307 310 307 302 302 299 296 295 293 290 290 286 281 276 272 272 264 257 254 249 245 243
260 260 265 270 271 275 275 279 282 286 290 293 292 294 296 304 303 302 306 309 311 310 308 310 312 309 308 308 310 307 307 306 302 296 293 289 286 284 280 277 275 271 266 260 257 252 250 242 241
262 262 265 269 270 274 275 278 281 286 289 288 288 293 297 301 300 303 307 310 310 308 308 310 310 308 310 311 311 311 306 304 299 296 294 288 284 281 278 279 270 267 262 258 256 255 253 249 240
262 259 266 271 273 276 281 283 282 286 288 289 288 295 299 298 301 304 306 311 310 308 308 311 307 309 313 312 312 309 307 304 298 293 292 289 284 283 280 280 268 264 260 256 255 255 255 251 245
258 260 264 271 272 275 280 281 286 288 288 289 292 299 298 299 302 304 307 309 310 308 310 309 309 311 311 313 309 308 304 302 296 293 291 287 281 279 279 278 272 264 260 258 257 256 252 249 247
264 262 264 271 273 276 279 282 284 288 287 288 297 298 297 300 303 304 306 308 308 308 309 310 310 308 316 312 310 306 305 301 299 296 293 287 282 278 274 272 270 267 263 260 259 256 253 249 246
264 266 265 269 272 276 280 285 285 285 285 286 297 292 295 300 301 303 304 306 308 309 309 309 308 314 314 310 313 310 306 307 304 297 292 286 285 278 274 272 266 263 261 260 257 255 252 249 247
265 265 267 267 273 277 281 282 282 285 283 283 294 289 293 297 299 301 302 303 306 308 308 308 312 315 310 313 311 309 309 311 304 299 294 294 289 284 278 273 271 267 263 259 257 254 253 251 249
263 265 264 267 273 277 277 273 278 282 281 291 291 288 291 294 297 300 300 303 305 308 307 310 314 310 313 313 313 312 313 311 306 301 300 296 294 288 283 277 273 270 267 263 259 255 251 249 247
264 264 266 270 273 274 273 270 279 273 283 290 288 287 290 294 295 298 298 302 304 306 307 313 310 312 315 317 316 316 314 310 307 306 302 299 297 292 287 282 279 275 269 263 258 254 252 249 248
260 263 264 268 268 267 266 267 272 274 281 283 284 286 289 292 294 295 298 300 302 304 308 311 310 314 316 317 319 315 311 310 307 307 306 305 299 292 287 280 275 269 264 260 256 251 249 246 242
262 268 269 267 264 262 261 266 271 270 278 281 282 283 287 290 293 293 298 299 301 304 309 310 312 317 319 321 319 313 312 309 310 309 306 299 295 292 289 284 279 275 269 263 259 258 256 250 245
265 269 265 261 256 256 260 263 264 270 275 276 278 283 290 293 291 294 296 297 301 305 310 314 316 319 322 317 318 314 312 312 310 306 301 297 295 290 283 282 284 283 284 279 270 266 260 255 249
257 256 257 258 259 263 267 269 262 264 269 277 281 284 287 289 288 291 292 296 302 306 313 316 318 320 321 319 316 314 314 312 306 301 295 296 291 293 295 296 292 289 287 279 273 266 262 255 249
259 260 261 260 260 267 271 270 265 266 274 274 279 280 283 284 285 288 292 296 302 307 313 319 318 320 320 318 316 315 312 306 301 297 303 300 304 308 309 303 301 299 292 282 271 261 257 254 248
257 261 261 257 259 264 265 269 268 268 269 273 273 275 280 281 282 287 290 296 302 310 315 318 318 320 318 318 316 311 306 302 299 303 305 309 313 314 312 310 307 301 289 270 259 253 244 242 239
260 261 258 258 260 264 266 268 269 268 266 270 269 272 274 277 282 286 291 297 303 311 314 317 316 313 318 318 311 307 306 306 304 310 308 318 316 315 316 314 311 300 286 264 250 242 237 233 231
258 254 256 262 267 270 271 268 263 260 259 261 262 266 274 278 281 283 291 299 308 312 314 313 310 318 318 313 312 309 311 312 318 319 317 320 317 317 319 320 313 306 278 256 231 222 216 211 207
253 259 266 272 272 271 273 266 258 253 250 253 261 269 270 274 275 286 297 303 311 309 308 311 313 317 315 311 311 309 312 320 330 329 328 325 321 321 327 329 337 303 243 192 190 195 193 186 184
258 267 270 270 269 268 253 241 249 247 249 252 258 261 266 270 279 292 298 309 303 304 310 311 317 316 313 308 308 308 317 330 332 331 335 334 330 331 336 354 20 53 111 156 132 144 172 171 167
258 263 263 262 263 239 236 240 245 246 245 248 254 253 262 270 284 289 305 297 299 307 310 319 318 315 310 307 308 310 328 341 343 339 338 336 336 340 6 38 63 92 121 117 109 118 143 152 161
241 245 258 262 260 222 233 219 243 244 242 242 246 254 260 277 278 286 295 294 304 311 316 315 314 315 306 311 310 319 3 6 354 344 337 334 346 13 46 75 89 96 103 113 119 128 139 151 156
235 239 241 258 240 223 222 197 237 228 230 237 239 256 266 270 271 289 292 302 305 311 312 311 315 308 307 311 318 27 34 15 4 355 346 6 19 65 83 84 88 86 96 110 109 126 132 137 144
233 234 256 250 223 212 199 213 233 220 219 224 247 256 266 269 275 288 295 296 305 302 308 309 314 306 305 313 4 59 43 26 16 5 16 29 60 77 87 86 94 92 109 115 125 129 133 138 149
232 229 228 219 199 204 207 215 212 216 212 234 244 256 269 267 275 286 290 297 300 302 308 317 312 304 304 311 113 71 52 37 22 23 41 47 76 88 86 83 95 105 125 130 133 129 128 128 132
218 220 224 215 204 205 209 215 200 209 226 237 247 259 253 260 262 274 288 295 304 316 320 317 307 303 301 278 143 77 61 40 20 28 46 50 71 85 84 85 98 107 128 139 140 135 132 127 122
Height
10932 10931 10932 10930 10930 10929 10929 10929 10929 10929 10929 10927 10924 10919 10918 10917 10917 10917 10914 10911 10907 10904 10903 10898 10894 10889 10885 10882 10879 10875 10869 10864 10858 10853 10851 10850 10850 10851 10851 10850 10851 10850 10850 10848 10847 10848 10850 10854 10856
10924 10924 10924 10924 10922 10921 10919 10925 10924 10924 10922 10920 10918 10913 10909 10908 10908 10906 10904 10902 10898 10896 10893 10889 10884 10880 10875 10871 10866 10861 10856 10850 10844 10840 10838 10838 10836 10835 10834 10833 10834 10833 10833 10834 10834 10832 10832 10833 10838
10917 10917 10917 10916 10915 10913 10912 10917 10918 10917 10916 10912 10910 10906 10901 10900 10898 10895 10893 10892 10888 10885 10881 10877 10873 10868 10864 10859 10854 10849 10844 10838 10832 10829 10825 10824 10821 10820 10818 10816 10815 10815 10813 10813 10815 10815 10815 10817 10822
10906 10908 10910 10909 10909 10907 10904 10909 10911 10910 10908 10906 10903 10898 10895 10889 10887 10884 10880 10879 10876 10874 10869 10864 10860 10856 10849 10844 10841 10837 10832 10827 10822 10817 10813 10810 10805 10802 10799 10797 10795 10795 10794 10794 10796 10798 10798 10799 10804
10899 10900 10901 10901 10902 10899 10898 10900 10903 10904 10901 10900 10895 10891 10887 10881 10878 10875 10870 10867 10864 10862 10857 10851 10847 10843 10836 10830 10826 10822 10817 10812 10808 10804 10800 10796 10790 10785 10780 10776 10775 10774 10775 10776 10778 10781 10784 10784 10788
10889 10891 10894 10893 10891 10891 10891 10893 10894 10894 10893 10892 10887 10883 10877 10873 10869 10864 10861 10859 10855 10851 10845 10840 10836 10830 10824 10817 10813 10807 10801 10797 10793 10788 10783 10776 10772 10767 10763 10760 10758 10757 10758 10760 10762 10766 10770 10772 10776
10878 10882 10885 10886 10881 10881 10883 10885 10887 10884 10884 10882 10879 10879 10874 10867 10858 10854 10851 10848 10846 10840 10835 10830 10825 10818 10812 10806 10798 10792 10787 10781 10774 10768 10762 10755 10751 10749 10748 10746 10743 10742 10744 10745 10748 10750 10755 10758 10761
10867 10872 10877 10875 10870 10872 10874 10876 10874 10874 10873 10872 10871 10872 10867 10859 10848 10845 10841 10838 10835 10829 10824 10819 10813 10805 10798 10792 10785 10779 10773 10766 10757 10750 10746 10740 10735 10732 10732 10731 10730 10729 10730 10732 10734 10738 10741 10745 10748
10856 10864 10866 10862 10860 10862 10864 10865 10863 10866 10862 10857 10860 10861 10859 10853 10844 10834 10832 10828 10823 10817 10812 10807 10799 10791 10785 10779 10773 10766 10759 10749 10740 10735 10732 10727 10723 10719 10717 10716 10716 10717 10717 10718 10720 10723 10726 10729 10732
10843 10853 10856 10844 10849 10854 10853 10855 10854 10856 10854 10846 10853 10848 10847 10844 10836 10828 10823 10819 10812 10807 10800 10794 10788 10780 10771 10766 10760 10751 10741 10733 10726 10721 10717 10714 10711 10708 10705 10703 10703 10703 10704 10705 10706 10707 10711 10714 10716
10828 10848 10838 10840 10836 10846 10843 10843 10843 10845 10841 10840 10848 10839 10835 10833 10827 10822 10814 10807 10801 10796 10791 10785 10779 10769 10759 10753 10744 10735 10726 10719 10713 10708 10704 10702 10698 10694 10693 10692 10691 10691 10691 10692 10692 10692 10694 10698 10702
10818 10832 10827 10830 10826 10832 10832 10832 10827 10835 10829 10834 10837 10832 10828 10821 10817 10813 10808 10801 10794 10788 10781 10775 10768 10757 10750 10741 10731 10723 10714 10707 10701 10696 10691 10688 10683 10681 10679 10678 10676 10675 10675 10676 10677 10679 10680 10681 10684
10813 10819 10813 10819 10816 10819 10820 10816 10819 10816 10811 10825 10825 10820 10817 10813 10807 10804 10797 10791 10784 10778 10771 10765 10754 10748 10739 10728 10719 10710 10703 10696 10690 10683 10678 10675 10670 10667 10664 10663 10660 10660 10660 10660 10661 10663 10664 10666 10668
10793 10801 10806 10806 10807 10802 10805 10800 10815 10799 10803 10812 10811 10810 10806 10803 10798 10794 10788 10782 10775 10768 10761 10752 10745 10737 10727 10717 10708 10700 10692 10686 10678 10672 10666 10662 10657 10654 10652 10650 10649 10647 10646 10646 10647 10648 10649 10651 10653
10779 10787 10793 10797 10794 10790 10779 10799 10801 10793 10792 10801 10799 10797 10796 10793 10788 10784 10778 10772 10766 10758 10751 10742 10734 10726 10716 10707 10698 10690 10683 10676 10668 10661 10655 10650 10646 10643 10641 10639 10638 10636 10636 10635 10635 10635 10636 10637 10639
10764 10772 10782 10781 10777 10769 10760 10800 10787 10777 10784 10790 10789 10785 10785 10781 10778 10773 10769 10763 10756 10748 10741 10733 10724 10715 10705 10696 10690 10681 10673 10666 10659 10653 10648 10642 10637 10633 10632 10630 10629 10626 10625 10624 10623 10622 10622 10623 10624
10757 10761 10762 10760 10756 10745 10751 10779 10777 10765 10774 10781 10778 10775 10775 10771 10767 10763 10758 10752 10746 10739 10731 10722 10713 10704 10695 10689 10681 10673 10665 10658 10652 10645 10640 10634 10629 10627 10625 10622 10619 10616 10613 10611 10609 10608 10608 10608 10609
10729 10730 10735 10742 10740 10731 10747 10767 10764 10758 10763 10768 10767 10764 10764 10763 10756 10753 10748 10742 10736 10728 10720 10713 10703 10694 10687 10680 10671 10663 10656 10651 10645 10639 10634 10629 10624 10620 10616 10612 10608 10604 10600 10598 10596 10595 10594 10594 10596
10705 10715 10723 10726 10725 10727 10735 10745 10754 10751 10754 10755 10757 10753 10753 10752 10745 10744 10738 10733 10727 10719 10711 10703 10694 10686 10680 10672 10664 10655 10650 10645 10638 10632 10627 10623 10618 10612 10607 10602 10596 10590 10587 10585 10585 10583 10584 10585 10587
10694 10707 10711 10710 10714 10714 10719 10729 10739 10740 10742 10744 10745 10742 10742 10741 10737 10734 10729 10724 10718 10710 10702 10695 10686 10680 10674 10664 10656 10650 10644 10638 10631 10626 10622 10616 10610 10604 10599 10591 10584 10579 10577 10574 10574 10575 10576 10578 10580
10684 10689 10688 10692 10694 10707 10714 10722 10727 10727 10730 10731 10731 10730 10731 10730 10729 10724 10720 10715 10709 10702 10695 10687 10680 10675 10665 10657 10651 10645 10637 10630 10626 10621 10616 10610 10604 10597 10590 10581 10575 10570 10568 10567 10567 10569 10571 10573 10575
10669 10659 10668 10683 10691 10700 10701 10717 10713 10708 10717 10716 10716 10720 10722 10722 10719 10715 10711 10707 10700 10693 10686 10680 10675 10666 10658 10652 10646 10637 10631 10626 10621 10616 10611 10604 10596 10588 10580 10573 10567 10564 10563 10563 10564 10566 10568 10570 10571
10648 10650 10664 10674 10681 10688 10688 10702 10686 10691 10698 10699 10709 10713 10712 10712 10708 10706 10703 10697 10691 10685 10680 10674 10667 10658 10652 10647 10639 10632 10627 10623 10617 10612 10606 10597 10588 10580 10574 10568 10564 10563 10562 10562 10563 10565 10566 10567 10569
10639 10646 10655 10661 10666 10676 10672 10679 10670 10673 10685 10695 10699 10700 10703 10701 10700 10698 10694 10688 10683 10679 10673 10667 10659 10651 10647 10641 10634 10629 10625 10620 10615 10609 10600 10591 10583 10576 10571 10567 10564 10563 10563 10564 10564 10565 10567 10568 10570
10632 10636 10642 10648 10655 10661 10656 10667 10658 10666 10679 10685 10688 10692 10693 10693 10693 10690 10684 10681 10677 10672 10665 10657 10651 10648 10642 10636 10631 10626 10623 10618 10612 10604 10596 10588 10581 10574 10571 10568 10566 10566 10566 10566 10567 10569 10570 10572 10574
10621 10624 10636 10641 10646 10649 10651 10656 10652 10666 10675 10676 10680 10683 10686 10686 10684 10680 10677 10674 10670 10664 10657 10652 10648 10643 10638 10633 10628 10624 10621 10616 10609 10600 10594 10586 10579 10575 10573 10571 10570 10569 10570 10570 10571 10572 10574 10576 10579
10610 10627 10622 10637 10642 10644 10649 10652 10648 10661 10664 10670 10675 10677 10679 10679 10676 10673 10671 10668 10664 10658 10652 10649 10644 10640 10635 10630 10626 10624 10620 10614 10606 10600 10593 10584 10580 10579 10576 10576 10574 10574 10574 10575 10576 10577 10579 10582 10585
10607 10614 10627 10634 10638 10639 10643 10645 10644 10655 10662 10666 10669 10671 10674 10671 10668 10667 10665 10663 10659 10654 10649 10643 10640 10636 10632 10628 10625 10624 10619 10614 10606 10601 10592 10586 10583 10582 10580 10580 10579 10579 10580 10581 10582 10584 10587 10589 10592
10602 10614 10621 10626 10632 10635 10637 10636 10644 10651 10657 10661 10665 10668 10668 10665 10663 10663 10662 10659 10655 10650 10644 10639 10636 10634 10629 10625 10625 10623 10620 10615 10610 10602 10595 10590 10586 10585 10585 10584 10584 10585 10587 10588 10589 10592 10595 10598 10602
10587 10602 10612 10617 10621 10626 10628 10631 10642 10647 10650 10655 10659 10661 10661 10659 10659 10660 10658 10655 10650 10644 10639 10636 10634 10631 10626 10624 10624 10623 10620 10616 10612 10604 10599 10595 10592 10589 10589 10589 10589 10590 10592 10594 10596 10599 10603 10606 10610